Location: Heidgraben
(53.7081°N, 9.6576°E)
Time: 01:28:07
(UTC+00:00)

ATLAS CENTAUR R/B - Visible Passes

Search period start: 24 October 2020 00:00
Search period end: 03 November 2020 00:00
Orbit: 479 x 667 km, 64.7° (Epoch: 12 October)

Date Brightness Start Highest point End Pass type
(mag) Time Alt. Az. Time Alt. Az. Time Alt. Az.
27 Oct 4.8 04:43:58 10° SE 04:44:49 11° ESE 04:45:40 10° E visible
28 Oct 4.3 04:44:50 10° SSE 04:47:09 15° ESE 04:49:26 10° E visible
29 Oct 3.8 04:46:31 10° S 04:49:31 22° ESE 04:52:27 10° ENE visible
30 Oct 3.1 04:48:30 10° S 04:51:55 30° ESE 04:55:15 10° ENE visible
31 Oct 2.3 04:50:42 10° SSW 04:54:22 43° SE 04:57:55 10° NE visible
01 Nov 1.6 04:53:02 10° SSW 04:56:50 63° SE 05:00:31 10° NE visible
02 Nov 4.0 03:18:57 10° SSE 03:21:00 14° ESE 03:23:02 10° E visible
02 Nov 1.1 04:55:30 10° SW 04:59:20 89° SE 05:03:04 10° NE visible
